Location: Unspecified
(40.7945°N, 111.1337°W)
Time: 07:26:10
(UTC-06:00)

Altair - Pass Details

Date: 27 June 2019
Orbit: 1501 x 1683 km, 47.2° (Epoch: 20 July)

Event Time Altitude Azimuth Distance (km) Brightness Sun altitude
Rises 00:51:44 0° 295° (WNW) 4,789 10.5 -25.3°
Reaches altitude 10° 00:54:47 10° 296° (WNW) 3,826 10.0 -25.4°
Maximum altitude 01:04:39 84° 25° (NNE) 1,659 7.6 -25.7°
Drops below altitude 10° 01:14:49 10° 115° (ESE) 3,930 9.4 -25.8°
Sets 01:18:00 0° 116° (ESE) 4,923 9.9 -25.8°
